DW8935 Weather Reports


time (UTC)temp
F
wind
direction
speed
knots
gust
knots
rain 1hr
in
rain 24hr
in
rain mn
in
humidity
%
barometer
mb
20260903110009 54 270 1.7 5.2 0.00 0.00 0.00 69 1018.8
20260903104507 54 252 2.6 10.4 0.00 0.00 0.00 69 1018.5
20260903101504 54 264 0.9 4.3 0.00 0.00 0.00 68 1018.1
20260903100002 55 239 0.9 6.1 0.00 0.00 0.00 68 1017.8
20260903094501 55 285 0.9 6.1 0.00 0.00 0.00 66 1017.6
20260903091556 56 236 2.6 7.8 0.00 0.00 0.00 66 1017.1
20260903090059 56 220 1.7 8.7 0.00 0.00 0.00 66 1016.9
20260903084555 57 265 2.6 9.6 0.00 0.00 0.00 65 1016.7
20260903081552 58 280 3.5 8.7 0.00 0.00 0.00 63 1016.3
20260903080103 58 216 3.5 8.7 0.00 0.00 0.00 62 1016.0
20260903074602 59 244 4.3 11.3 0.00 0.00 0.00 62 1015.9
20260903071547 60 241 5.2 13.0 0.00 0.00 0.00 59 1015.1
20260903070044 61 232 7.0 13.9 0.00 0.00 0.00 58 1015.0
20260903064545 62 257 5.2 12.2 0.00 0.00 0.00 57 1014.9
20260903061545 62 196 5.2 13.0 0.00 0.00 0.00 56 1014.6
20260903060038 62 213 6.1 16.5 0.00 0.00 0.00 55 1014.3
20260903054536 63 236 8.7 16.5 0.00 0.00 0.00 53 1014.1
20260903051535 63 233 7.0 13.0 0.00 0.00 0.00 54 1013.9
20260903050034 63 254 7.0 17.4 0.00 0.00 0.00 55 1013.7
20260903044532 63 243 6.1 17.4 0.00 0.00 0.00 57 1013.6
20260903041537 63 239 6.1 19.1 0.00 0.00 0.00 59 1013.3
20260903040026 63 250 4.3 17.4 0.00 0.00 0.00 63 1013.1
20260903034529 62 263 4.3 13.9 0.00 0.00 0.00 68 1013.0
20260903031519 58 248 2.6 10.4 0.00 0.00 0.00 77 1013.0
20260903030020 58 304 6.1 13.0 0.00 0.00 0.00 78 1013.2
20260903024519 58 278 7.0 13.0 0.00 0.00 0.00 80 1013.2
20260903021517 56 288 3.5 10.4 0.00 0.00 0.00 85 1012.7
20260903020017 56 273 5.2 12.2 0.00 0.00 0.00 84 1012.8
20260903014517 57 270 3.5 14.8 0.00 0.00 0.00 81 1012.6
20260903011514 57 221 4.3 8.7 0.00 0.00 0.00 86 1012.6
20260903010012 57 264 5.2 11.3 0.00 0.00 0.00 83 1012.5
20260903004514 57 244 3.5 10.4 0.00 0.00 0.00 83 1012.2
20260903001508 57 338 7.0 15.6 0.00 0.00 0.00 77 1011.9
20260903000005 60 246 6.1 15.6 0.00 0.00 0.00 69 1011.5
20260902234503 59 286 5.2 14.8 0.00 0.00 0.00 65 1011.3
20260902231607 58 264 6.1 15.6 0.00 0.00 0.00 66 1010.9
20260902230056 58 338 7.0 16.5 0.00 0.00 0.00 66 1010.8
20260902224604 58 282 4.3 18.2 0.00 0.00 0.00 66 1010.6
20260902223153 56 311 7.0 15.6 0.00 0.00 0.00 68 1010.5
20260902221549 55 323 7.0 16.5 0.00 0.00 0.00 70 1010.4
20260902220053 54 338 5.2 12.2 0.00 0.00 0.00 70 1010.2
20260902214546 54 333 5.2 15.6 0.00 0.00 0.00 69 1010.3
20260902213147 54 298 3.5 11.3 0.00 0.00 0.00 69 1010.1
20260902211549 53 24 6.1 12.2 0.00 0.00 0.00 69 1009.9
20260902210048 53 355 2.6 9.6 0.00 0.00 0.00 69 1009.7
20260902204544 53 336 2.6 7.0 0.00 0.00 0.00 68 1009.3
20260902203143 54 325 5.2 9.6 0.00 0.00 0.00 67 1009.1
20260902201545 54 317 6.1 12.2 0.00 0.00 0.00 66 1009.3
20260902200052 54 321 3.5 12.2 0.00 0.00 0.00 65 1009.5
20260902194541 54 325 4.3 9.6 0.00 0.00 0.00 65 1009.4
20260902193140 54 336 4.3 11.3 0.00 0.00 0.00 65 1009.4
20260902191549 54 312 4.3 11.3 0.00 0.00 0.00 66 1009.4
20260902190040 53 355 4.3 9.6 0.00 0.00 0.00 67 1009.1
20260902184548 53 325 4.3 8.7 0.00 0.00 0.00 67 1009.0
20260902181536 53 301 3.5 9.6 0.00 0.00 0.00 69 1009.0
20260902180038 53 278 4.3 7.0 0.00 0.00 0.00 70 1009.0
20260902174531 53 306 3.5 9.6 0.00 0.00 0.00 69 1008.9
20260902173130 53 328 4.3 9.6 0.00 0.00 0.00 70 1009.1
20260902171528 53 328 2.6 9.6 0.00 0.00 0.00 69 1009.3
20260902170027 53 327 4.3 12.2 0.00 0.00 0.00 68 1009.1
20260902164524 53 313 2.6 10.4 0.00 0.00 0.00 70 1009.6
20260902163138 53 336 1.7 7.8 0.00 0.00 0.00 71 1010.1
20260902161520 53 304 2.6 7.8 0.00 0.00 0.00 71 1010.2
20260902160018 53 308 2.6 7.8 0.00 0.00 0.00 71 1010.2
20260902154525 53 330 3.5 7.8 0.00 0.00 0.00 72 1010.0
20260902153116 52 321 3.5 7.8 0.00 0.00 0.00 72 1010.1
20260902151514 52 311 1.7 7.8 0.00 0.00 0.00 72 1010.2
20260902150012 52 315 1.7 6.1 0.00 0.00 0.00 71 1010.1
20260902144518 53 259 1.7 7.8 0.00 0.00 0.00 70 1010.1
20260902143109 53 305 3.5 7.8 0.00 0.00 0.00 70 1010.1
20260902141509 53 325 2.6 7.0 0.00 0.00 0.00 69 1010.2
20260902140002 53 292 1.7 8.7 0.00 0.00 0.00 68 1010.4
20260902134601 53 308 3.5 7.8 0.00 0.00 0.00 67 1010.5
20260902133108 54 300 2.6 8.7 0.00 0.00 0.00 67 1010.7
20260902131602 54 327 3.5 8.7 0.00 0.00 0.00 67 1010.8
20260902130053 54 302 2.6 8.7 0.00 0.00 0.00 66 1010.9
20260902124552 55 287 0.9 7.8 0.00 0.00 0.00 66 1011.1
20260902123106 56 309 1.7 6.1 0.00 0.00 0.00 64 1011.3
20260902121558 56 283 3.5 8.7 0.00 0.00 0.00 64 1011.4
20260902120105 56 316 1.7 7.8 0.00 0.00 0.00 69 1011.6
20260902114550 55 309 0.0 4.3 0.00 0.00 0.00 70 1011.6
20260902113051 56 347 0.0 2.6 0.00 0.00 0.00 69 1011.7
20260902111556 56 347 0.0 3.5 0.00 0.00 0.00 69 1011.7